(61490) = 2000 QH47 = 2001 XF9

Discovered at Socorro on 2000-08-24 by LINEAR.

Orbit

Orbit type: Main Belt

Note: WebGL enabled browser required.

epoch2023-09-13.0
epoch JD2460200.5
perihelion date2019-11-16.39100
perihelion JD2458803.89100
argument of perihelion (°)59.71593
ascending node (°)352.37520
inclination (°)4.85536
eccentricity0.0060116
perihelion distance (AU)2.7336633
Tisserand w.r.t. Jupiter3.3
ΔV w.r.t. Earth (km/sec)10.4
semimajor axis (AU)2.7501963
mean anomaly (°)301.80966
mean daily motion (°/day)0.21610180
aphelion distance (AU)2.767
period (years)4.56
P-vector [x]0.61399631
P-vector [y]0.69199161
P-vector [z]0.37967900
Q-vector [x]-0.78922899
Q-vector [y]0.54508382
Q-vector [z]0.28284490
absolute magnitude14.95
phase slope0.15
uncertainty0
referenceMPEC 2024-A55
observations used1813
oppositions19
arc length (days)8978
first opposition used1999
last opposition used2023
residual rms (arc-secs)0.64
perturbers coarse indicatorM-v
perturbers precise indicator003Ek
first observation date used1999-05-09.0
last observation date used2023-12-07.0
computer nameMPCLINUX
JD of orbit computation2456966.748910
perihelion JD uncertainty (days)3.0387E-03
argument of perihelion uncertainty (°)6.6095E-04
ascending node uncertainty (°)4.0195E-05
inclination uncertainty (°)4.8676E-06
eccentricity uncertainty 4.4685E-08
perihelion distance uncertainty (AU)1.2556E-07
Minimum Orbit Intersection Distances (in AU)
for orbit epoch: 2460200.5, reference: E2024-A55
Mercury2.29822
Venus2.01491
Earth1.73597
Mars1.08738
Jupiter2.22003
Saturn6.3348
Uranus15.6896
Neptune27.112

Observations

1835 total observations over interval: 1999 05 09.34223 – 2023 12 07.098129
These data are available for download (format description).

Date (UT) J2000 RA J2000 Dec Magn Location Ref
1999 05 09.34223 15 23 56.63 -25 26 10.1 17.9 R 699 – Lowell Observatory-LONEOS MPS 65718
1999 05 09.35241 15 23 56.01 -25 26 08.6   699 – Lowell Observatory-LONEOS MPS 65718
1999 05 09.36258 15 23 55.35 -25 26 07.9   699 – Lowell Observatory-LONEOS MPS 65718
1999 05 10.28172 15 23 03.56 -25 24 13.9 18.7   704 – Lincoln Laboratory ETS, New Mexico MPS 48895
1999 05 10.29395 15 23 02.88 -25 24 13.6 19.2   704 – Lincoln Laboratory ETS, New Mexico MPS 48895
1999 05 10.30618 15 23 02.06 -25 24 09.1 19.1   704 – Lincoln Laboratory ETS, New Mexico MPS 48895
1999 05 10.31836 15 23 01.23 -25 24 08.8 19.1   704 – Lincoln Laboratory ETS, New Mexico MPS 48895
1999 05 13.25134 15 20 14.40 -25 17 31.7 17.9 R 699 – Lowell Observatory-LONEOS MPS 61050
1999 05 13.27682 15 20 12.90 -25 17 27.5   699 – Lowell Observatory-LONEOS MPS 61050
1999 05 13.30228 15 20 11.43 -25 17 23.5   699 – Lowell Observatory-LONEOS MPS 61050
1999 05 18.22751 15 15 31.23 -25 04 30.8 18.1   704 – Lincoln Laboratory ETS, New Mexico MPS 48895
1999 05 18.24167 15 15 30.39 -25 04 30.6 18.1   704 – Lincoln Laboratory ETS, New Mexico MPS 48895
1999 05 18.25567 15 15 29.74 -25 04 26.0 18.1   704 – Lincoln Laboratory ETS, New Mexico MPS 48895
1999 05 18.26971 15 15 28.86 -25 04 24.3 18.0   704 – Lincoln Laboratory ETS, New Mexico MPS 48895
1999 05 18.28368 15 15 28.01 -25 04 21.1 18.0   704 – Lincoln Laboratory ETS, New Mexico MPS 48895
2000 08 24.27049 22 35 19.97 -11 29 46.0 18.3   704 – Lincoln Laboratory ETS, New Mexico MPS 18127
2000 08 24.28318 22 35 19.24 -11 29 47.9 19.0   704 – Lincoln Laboratory ETS, New Mexico MPS 18127
2000 08 24.29592 22 35 18.55 -11 29 50.4 18.7   704 – Lincoln Laboratory ETS, New Mexico MPS 18127
2000 08 24.30866 22 35 17.93 -11 29 52.3 18.8   704 – Lincoln Laboratory ETS, New Mexico MPS 18127
2000 08 24.32140 22 35 17.21 -11 29 56.0 18.4   704 – Lincoln Laboratory ETS, New Mexico MPS 18127
2000 08 29.28023 22 30 56.74 -11 46 35.1 18.6   704 – Lincoln Laboratory ETS, New Mexico MPS 18127
2000 08 29.29367 22 30 55.89 -11 46 37.4 18.7   704 – Lincoln Laboratory ETS, New Mexico MPS 18127
2000 08 29.30709 22 30 55.19 -11 46 39.6 18.4   704 – Lincoln Laboratory ETS, New Mexico MPS 18127
2000 08 29.32053 22 30 54.48 -11 46 42.2 18.8   704 – Lincoln Laboratory ETS, New Mexico MPS 18127
2000 08 29.33403 22 30 53.78 -11 46 45.1 18.9   704 – Lincoln Laboratory ETS, New Mexico MPS 18127
2000 08 31.25876 22 29 12.31 -11 52 59.9 18.7   704 – Lincoln Laboratory ETS, New Mexico MPS 18127
2000 08 31.27199 22 29 11.64 -11 53 02.4 19.0   704 – Lincoln Laboratory ETS, New Mexico MPS 18127
2000 08 31.28524 22 29 10.89 -11 53 05.3 18.3   704 – Lincoln Laboratory ETS, New Mexico MPS 18127
2000 08 31.29850 22 29 10.16 -11 53 07.7 18.7   704 – Lincoln Laboratory ETS, New Mexico MPS 18127
2000 09 05.19730 22 24 55.55 -12 08 12.4 18.5   704 – Lincoln Laboratory ETS, New Mexico MPS 18127
2000 09 05.21077 22 24 54.84 -12 08 12.7 19.3   704 – Lincoln Laboratory ETS, New Mexico MPS 18127
2000 09 05.22411 22 24 54.13 -12 08 16.2 19.2   704 – Lincoln Laboratory ETS, New Mexico MPS 18127
2000 09 05.23748 22 24 53.36 -12 08 19.7 18.7   704 – Lincoln Laboratory ETS, New Mexico MPS 18127
2000 09 05.25085 22 24 52.69 -12 08 21.3 19.0   704 – Lincoln Laboratory ETS, New Mexico MPS 18127
2001 11 11.35849 05 26 26.03 +30 13 51.8 19.1   704 – Lincoln Laboratory ETS, New Mexico MPS 48895
2001 11 11.37313 05 26 25.48 +30 13 52.6 19.5   704 – Lincoln Laboratory ETS, New Mexico MPS 48895
2001 11 11.38777 05 26 24.83 +30 13 54.1 19.4   704 – Lincoln Laboratory ETS, New Mexico MPS 48895
2001 11 11.40240 05 26 24.34 +30 13 56.1 19.6   704 – Lincoln Laboratory ETS, New Mexico MPS 48895
2001 11 11.41704 05 26 23.70 +30 13 57.6 19.3   704 – Lincoln Laboratory ETS, New Mexico MPS 48895
2001 11 21.30297 05 18 53.09 +30 24 49.8 18.9   704 – Lincoln Laboratory ETS, New Mexico MPS 48895
2001 11 21.33414 05 18 51.33 +30 24 52.5 19.5   704 – Lincoln Laboratory ETS, New Mexico MPS 48895
2001 11 21.34916 05 18 50.42 +30 24 52.5 19.2   704 – Lincoln Laboratory ETS, New Mexico MPS 48895
2001 11 21.36421 05 18 49.65 +30 24 53.5 19.2   704 – Lincoln Laboratory ETS, New Mexico MPS 48895
2001 11 24.30674 05 16 10.10 +30 26 23.1 19.1   704 – Lincoln Laboratory ETS, New Mexico MPS 48895
2001 11 24.32147 05 16 09.23 +30 26 23.4 18.7   704 – Lincoln Laboratory ETS, New Mexico MPS 48895
2001 11 24.35090 05 16 07.51 +30 26 23.4 19.2   704 – Lincoln Laboratory ETS, New Mexico MPS 48895
2001 12 09.24512 05 00 57.51 +30 19 35.3 19.0   704 – Lincoln Laboratory ETS, New Mexico MPS 45067
2001 12 09.26009 05 00 56.53 +30 19 33.3 19.5   704 – Lincoln Laboratory ETS, New Mexico MPS 45067
2001 12 09.27506 05 00 55.60 +30 19 32.3 19.3   704 – Lincoln Laboratory ETS, New Mexico MPS 45067
2001 12 09.29004 05 00 54.53 +30 19 31.1 19.3   704 – Lincoln Laboratory ETS, New Mexico MPS 45067
2001 12 09.30502 05 00 53.59 +30 19 29.1 19.1   704 – Lincoln Laboratory ETS, New Mexico MPS 45067
2001 12 10.20875 04 59 56.27 +30 18 16.8 18.9   704 – Lincoln Laboratory ETS, New Mexico MPS 45067
2001 12 10.22424 04 59 55.39 +30 18 16.0 19.3   704 – Lincoln Laboratory ETS, New Mexico MPS 45067
2001 12 10.23962 04 59 54.36 +30 18 14.8 18.6   704 – Lincoln Laboratory ETS, New Mexico MPS 45067
2001 12 10.25499 04 59 53.37 +30 18 13.8 18.2   704 – Lincoln Laboratory ETS, New Mexico MPS 45067
2001 12 10.27023 04 59 52.34 +30 18 12.2 19.0   704 – Lincoln Laboratory ETS, New Mexico MPS 45067
2001 12 17.21518 04 52 39.98 +30 06 11.0 18.0   704 – Lincoln Laboratory ETS, New Mexico MPS 45067
2001 12 17.23026 04 52 39.06 +30 06 09.3 18.3   704 – Lincoln Laboratory ETS, New Mexico MPS 45067
2001 12 17.26108 04 52 37.11 +30 06 05.7 18.1   704 – Lincoln Laboratory ETS, New Mexico MPS 45067
2001 12 17.27618 04 52 36.17 +30 06 04.0 18.1   704 – Lincoln Laboratory ETS, New Mexico MPS 45067
2001 12 17.29890 04 52 34.76 +30 06 00.4 18.5   704 – Lincoln Laboratory ETS, New Mexico MPS 45067
2001 12 17.31685 04 52 33.63 +30 05 58.1 18.7   704 – Lincoln Laboratory ETS, New Mexico MPS 45067
2001 12 17.33353 04 52 32.59 +30 05 56.0 18.5   704 – Lincoln Laboratory ETS, New Mexico MPS 45067
2001 12 17.34890 04 52 31.67 +30 05 53.6 18.9   704 – Lincoln Laboratory ETS, New Mexico MPS 45067
2001 12 17.36416 04 52 30.68 +30 05 51.9 18.8   704 – Lincoln Laboratory ETS, New Mexico MPS 45067
2001 12 22.22054 04 47 47.78 +29 54 55.9 18.6   704 – Lincoln Laboratory ETS, New Mexico MPS 46748
2001 12 22.23558 04 47 46.89 +29 54 54.3 18.8   704 – Lincoln Laboratory ETS, New Mexico MPS 46748
2001 12 22.25062 04 47 46.05 +29 54 52.5 18.7   704 – Lincoln Laboratory ETS, New Mexico MPS 46749
2001 12 22.26566 04 47 45.19 +29 54 50.6 18.7   704 – Lincoln Laboratory ETS, New Mexico MPS 46749
2001 12 23.21538 04 46 52.58 +29 52 30.2 18.5   704 – Lincoln Laboratory ETS, New Mexico MPS 46749
2001 12 23.23073 04 46 51.72 +29 52 27.8 19.1   704 – Lincoln Laboratory ETS, New Mexico MPS 46749
2001 12 23.24612 04 46 50.81 +29 52 25.4 19.0   704 – Lincoln Laboratory ETS, New Mexico MPS 46749
2001 12 23.26157 04 46 49.95 +29 52 23.1 18.6   704 – Lincoln Laboratory ETS, New Mexico MPS 46749
2001 12 23.27676 04 46 49.09 +29 52 20.8 18.9   704 – Lincoln Laboratory ETS, New Mexico MPS 46749
2002 01 08.23135 04 35 09.63 +29 08 10.2 19.1   704 – Lincoln Laboratory ETS, New Mexico MPS 54599
2002 01 08.24712 04 35 09.20 +29 08 08.0 19.5   704 – Lincoln Laboratory ETS, New Mexico MPS 54599
2002 01 08.28849 04 35 07.75 +29 08 00.4 19.4   704 – Lincoln Laboratory ETS, New Mexico MPS 54599
2002 01 08.30675 04 35 07.08 +29 07 57.1 19.4   704 – Lincoln Laboratory ETS, New Mexico MPS 54599
2002 02 06.16359 04 32 47.90 +28 00 44.7 19.5   704 – Lincoln Laboratory ETS, New Mexico MPS 48895
2002 02 06.17875 04 32 48.24 +28 00 43.4 19.8   704 – Lincoln Laboratory ETS, New Mexico MPS 48895
2002 02 06.19341 04 32 48.49 +28 00 41.0 20.1   704 – Lincoln Laboratory ETS, New Mexico MPS 48895
2002 02 06.20837 04 32 48.77 +28 00 40.6 19.9   704 – Lincoln Laboratory ETS, New Mexico MPS 48895
2002 02 06.22319 04 32 49.06 +28 00 38.4 19.9   704 – Lincoln Laboratory ETS, New Mexico MPS 48895
